This demonstration page uses our WeatherBlox Daily Observations layout. Learn more.

Left ArrowRight Arrow

38.20091, -84.87328

Hourly Observations for May 19, 2020

Temp ( °F °C ) Dew Point ( °F °C ) Humidity (%) Winds ( mph kmh ) Pressure ( in mb ) Visibility ( mi km ) Precip ( " mm )
12:05 am 00:05 Cloudy with Heavy Rain 60 15.6 57 13.9 90 90 Calm 29.75 1008 2 3 0.09 2.29
12:15 am 00:15 Cloudy with Rain 60 15.6 57 13.9 90 90 NE 3 6 29.75 1008 2 3 0.17 4.32
12:32 am 00:32 Cloudy with Light Rain 59 15 57 13.9 93 93 NE 3 6 29.77 1008 5 8 0.22 5.59
12:53 am 00:53 Cloudy with Light Rain 60 15.6 57 13.9 90 90 NNW 3 6 29.74 1007 8 13 0.24 6.10
1:15 am 01:15 Cloudy 60 15.6 58 14.4 93 93 Calm 29.75 1008 10 16 0.00 0.00
1:28 am 01:28 Cloudy 59 15 57 13.9 93 93 Calm 29.76 1008 10 16 0.00 0.00
1:46 am 01:46 Cloudy 60 15.6 57 13.9 90 90 Calm 29.74 1007 10 16 0.00 0.00
1:53 am 01:53 Cloudy 60 15.6 57 13.9 90 90 Calm 29.73 1007 10 16 0.00 0.00
2:49 am 02:49 Cloudy 61 16 57 14 88 88 NNW 3 6 29.71 1006 9 14 0.00 0.00
2:53 am 02:53 Cloudy 60 15.6 58 14.4 93 93 Calm 29.71 1006 9 14 0.00 0.00
3:15 am 03:15 Cloudy 60 15.6 58 14.4 93 93 Calm 29.71 1006 10 16 0.00 0.00
3:24 am 03:24 Cloudy 60 15.6 58 14.4 93 93 NW 3 6 29.70 1006 10 16 0.00 0.00
3:42 am 03:42 Cloudy 60 15.6 58 14.4 93 93 Calm 29.70 1006 10 16 0.00 0.00
3:53 am 03:53 Cloudy 60 15.6 58 14.4 93 93 Calm 29.69 1006 10 16 0.00 0.00
4:53 am 04:53 Cloudy 60 15.6 58 14.4 93 93 Calm 29.70 1006 9 14 0.00 0.00
5:33 am 05:33 Cloudy with Light Rain 60 15.6 58 14.4 93 93 Calm 29.71 1006 7 11 0.01 0.25
5:53 am 05:53 Cloudy 60 15.6 57 13.9 90 90 W 3 6 29.70 1006 7 11 0.01 0.25
6:13 am 06:13 Cloudy 60 15.6 57 13.9 90 90 W 3 6 29.70 1006 8 13 0.00 0.00
6:38 am 06:38 Cloudy 60 15.6 57 13.9 90 90 Calm 29.71 1006 9 14 0.00 0.00
6:53 am 06:53 Cloudy 60 15.6 57 13.9 90 90 W 3 6 29.71 1006 7 11 0.00 0.00
7:13 am 07:13 Cloudy with Mist and Fog 60 15.6 58 14.4 93 93 Calm 29.72 1007 6 10 0.00 0.00
7:35 am 07:35 Cloudy with Mist and Fog 60 15.6 58 14.4 93 93 W 3 6 29.72 1007 5 8 0.00 0.00
7:53 am 07:53 Cloudy with Mist and Fog 61 16.1 58 14.4 90 90 Calm 29.73 1007 5 8 0.00 0.00
8:49 am 08:49 Cloudy with Mist and Fog 61 16 57 14 88 88 WSW 5 7 29.74 1007 5 8 0.00 0.00
8:53 am 08:53 Cloudy with Mist and Fog 61 16.1 58 14.4 90 90 SW 6 9 29.74 1007 5 8 0.00 0.00
9:53 am 09:53 Cloudy 62 16.7 58 14.4 86 86 WSW 3 6 29.75 1007 7 11 0.00 0.00
10:33 am 10:33 Cloudy 61 16.1 58 14.4 90 90 WSW 5 7 29.76 1008 7 11 0.00 0.00
10:39 am 10:39 Cloudy 61 16.1 58 14.4 90 90 WSW 5 7 29.77 1008 7 11 0.00 0.00
10:53 am 10:53 Cloudy 62 16.7 58 14.4 86 86 Calm 29.77 1008 7 11 0.00 0.00
11:11 am 11:11 Cloudy 61 16.1 58 14.4 90 90 SW 6 9 29.78 1009 8 13 0.00 0.00
11:32 am 11:32 Cloudy with Mist and Fog 61 16.1 57 13.9 87 87 WSW 6 9 29.78 1009 6 10 0.00 0.00
11:50 am 11:50 Cloudy 61 16 57 14 88 88 WSW 3 6 29.78 1009 7 11 0.00 0.00
11:53 am 11:53 Cloudy 61 16.1 58 14.4 90 90 Calm 29.78 1009 7 11 0.00 0.00
12:32 pm 12:32 Cloudy 62 16.7 57 13.9 84 84 SW 7 11 29.80 1009 7 11 0.00 0.00
12:42 pm 12:42 Cloudy 62 16.7 58 14.4 86 86 WSW 3 6 29.79 1009 7 11 0.00 0.00
12:53 pm 12:53 Cloudy 62 16.7 58 14.4 86 86 WSW 5 7 29.79 1009 8 13 0.00 0.00
1:07 pm 13:07 Cloudy 62 16.7 58 14.4 86 86 WSW 3 6 29.79 1009 9 14 0.00 0.00
1:26 pm 13:26 Cloudy 64 17.8 58 14.4 81 81 Calm 29.79 1009 10 16 0.00 0.00
1:53 pm 13:53 Cloudy 65 18.3 58 14.4 78 78 Calm 29.79 1009 10 16 0.00 0.00
2:01 pm 14:01 Cloudy 66 18.9 59 15 78 78 NNE 3 6 29.78 1009 10 16 0.00 0.00
2:19 pm 14:19 Cloudy 65 18.3 58 14.4 78 78 Calm 29.80 1009 10 16 0.00 0.00
2:43 pm 14:43 Cloudy 66 18.9 58 14.4 75 75 Calm 29.79 1009 10 16 0.00 0.00
2:53 pm 14:53 Cloudy 67 19.4 58 14.4 73 73 ENE 5 7 29.79 1009 10 16 0.00 0.00
3:04 pm 15:04 Cloudy 67 19.4 58 14.4 73 73 NE 5 7 29.79 1009 10 16 0.00 0.00
3:53 pm 15:53 Cloudy 66 18.9 58 14.4 75 75 VRB 6 9 29.80 1009 10 16 0.00 0.00
4:21 pm 16:21 Cloudy 65 18.3 59 15 81 81 NNE 6 9 29.80 1009 10 16 0.00 0.00
4:36 pm 16:36 Cloudy 66 18.9 59 15 78 78 NE 7 11 29.79 1009 10 16 0.00 0.00
4:53 pm 16:53 Cloudy 65 18.3 59 15 81 81 NE 7 11 29.80 1009 10 16 0.00 0.00
5:23 pm 17:23 Cloudy with Light Rain 64 17.8 60 15.6 87 87 NNE 8 13 29.81 1009 10 16 0.00 0.00
5:42 pm 17:42 Cloudy with Light Rain 63 17.2 59 15 87 87 NE 7 11 29.81 1009 2 3 0.02 0.51
5:53 pm 17:53 Cloudy with Rain 63 17.2 59 15 87 87 NE 8 13 29.81 1010 2 3 0.04 1.02
6:07 pm 18:07 Cloudy with Light Rain 62 16.7 59 15 90 90 NE 6 9 29.82 1010 3 5 0.02 0.51
6:24 pm 18:24 Cloudy with Rain 62 16.7 60 15.6 93 93 NE 5 7 29.82 1010 2 3 0.05 1.27
6:33 pm 18:33 Cloudy with Rain 62 16.7 60 15.6 93 93 NE 5 7 29.82 1010 2 3 0.07 1.78
6:38 pm 18:38 Cloudy with Light Rain 62 16.7 60 15.6 93 93 NE 6 9 29.82 1010 3 5 0.08 2.03
6:53 pm 18:53 Cloudy with Rain 62 16.7 60 15.6 93 93 NE 6 9 29.82 1010 4 6 0.10 2.54
7:02 pm 19:02 Cloudy with Rain 63 17.2 60 15.6 90 90 NE 5 7 29.82 1010 3 4 0.01 0.25
7:10 pm 19:10 Cloudy with Light Rain 63 17.2 60 15.6 90 90 NNE 5 7 29.81 1009 6 10 0.02 0.51
7:53 pm 19:53 Cloudy 62 16.7 59 15 90 90 ENE 8 13 29.83 1010 8 13 0.02 0.51
8:10 pm 20:10 Cloudy with Light Rain 62 16.7 59 15 90 90 ENE 7 11 29.84 1011 3 4 0.00 0.00
8:22 pm 20:22 Cloudy with Light Rain 62 16.7 59 15 90 90 ENE 8 13 29.84 1011 5 8 0.01 0.25
8:53 pm 20:53 Cloudy 62 16.7 58 14.4 86 86 ENE 8 13 29.84 1011 10 16 0.01 0.25
9:29 pm 21:29 Cloudy with Light Rain 61 16.1 57 13.9 87 87 E 10 17 29.86 1011 10 16 0.01 0.25
9:53 pm 21:53 Cloudy with Light Rain 60 15.6 57 13.9 90 90 E 12 19 29.87 1011 10 16 0.01 0.25
10:53 pm 22:53 Cloudy 60 15.6 56 13.3 86 86 E 8 13 29.89 1012 10 16 0.00 0.00
11:53 pm 23:53 Cloudy 59 15 55 12.8 87 87 E 8 13 29.90 1013 10 16 0.00 0.00

Powered by AerisWeather